Location: Windsor
(43.2292°N, 89.3015°W)
Time: 09:43:46
(UTC+00:00)

Tiros 1 - Pass Details

Date: 05 June 2022
Orbit: 629 x 663 km, 48.4° (Epoch: 04 July)

Event Time Altitude Azimuth Distance (km) Brightness Sun altitude
Rises 03:07:20 0° 237° (WSW) 2,908 10.6 -13.7°
Reaches altitude 10° 03:09:39 10° 235° (SW) 2,001 9.7 -14.0°
Maximum altitude 03:14:14 74° 151° (SSE) 656 7.0 -14.5°
Drops below altitude 10° 03:18:50 10° 67° (ENE) 2,008 9.5 -15.0°
Sets 03:21:10 0° 65° (ENE) 2,920 10.4 -15.3°
